FW6918 Weather Reports


time (UTC)temp
F
wind
direction
speed
knots
gust
knots
rain 1hr
in
rain 24hr
in
rain mn
in
humidity
%
barometer
mb
20260504044552 48 13 13.0 22.6 0.00 0.00 0.00 50 1002.6
20260504043009 48 335 11.3 17.4 0.00 0.00 0.00 48 1001.5
20260504041519 48 334 3.5 6.1 0.00 0.00 0.00 48 1001.4
20260504040030 51 360 7.0 13.0 0.00 0.00 0.00 44 1001.4
20260504034554 52 329 12.2 17.4 0.00 0.00 0.00 44 1001.1
20260504033101 52 317 10.4 15.6 0.00 0.00 0.00 44 1000.8
20260504033004 52 313 10.4 15.6 0.00 0.00 0.00 43 1000.6
20260504031516 53 327 11.3 16.5 0.00 0.00 0.00 42 1000.3
20260504030031 53 328 12.2 20.0 0.00 0.00 0.00 42 1000.3
20260504024544 54 309 13.9 20.0 0.00 0.00 0.00 42 1000.2
20260504023055 54 329 17.4 22.6 0.00 0.00 0.00 41 1000.0
20260504021508 55 327 13.9 23.5 0.00 0.00 0.00 40 999.7
20260504020023 55 315 18.2 26.9 0.00 0.00 0.00 39 999.7
20260504014538 55 325 18.2 32.2 0.00 0.00 0.00 39 999.7
20260504013051 57 328 22.6 31.3 0.00 0.00 0.00 39 999.5
20260504011505 59 335 17.4 30.4 0.00 0.00 0.00 38 999.0
20260504010023 60 335 20.0 29.5 0.00 0.00 0.00 38 998.6
20260504004531 60 355 24.3 36.5 0.00 0.00 0.00 36 998.6
20260504003049 62 323 22.6 32.2 0.00 0.00 0.00 30 998.3
20260504001559 64 323 20.9 28.7 0.00 0.00 0.00 30 998.0
20260504001501 64 317 20.9 28.7 0.00 0.00 0.00 30 997.9
20260504000014 64 304 23.5 31.3 0.00 0.00 0.00 29 997.8
20260503234527 64 323 24.3 33.0 0.00 0.00 0.00 30 997.8
20260503233041 64 323 24.3 35.6 0.00 0.00 0.00 30 997.7
20260503231549 66 327 25.2 33.0 0.00 0.00 0.00 28 997.4
20260503230003 66 348 22.6 33.9 0.00 0.00 0.00 26 996.6
20260503224514 68 327 24.3 32.2 0.00 0.00 0.00 27 996.4
20260503223025 68 319 22.6 33.0 0.00 0.00 0.00 27 996.4
20260503221539 69 341 24.3 31.3 0.00 0.00 0.00 28 996.2
20260503220059 71 360 20.0 29.5 0.00 0.00 0.00 27 996.1
20260503214516 70 320 21.7 30.4 0.00 0.00 0.00 28 995.9
20260503213027 69 314 21.7 29.5 0.00 0.00 0.00 33 995.9
20260503211546 70 309 20.9 29.5 0.00 0.00 0.00 32 995.9
20260503210058 70 294 20.9 27.8 0.00 0.00 0.00 31 995.9
20260503204516 70 306 16.5 29.5 0.00 0.00 0.00 33 996.1
20260503203032 71 293 21.7 33.9 0.00 0.00 0.00 30 996.1
20260503201543 72 304 17.4 26.9 0.00 0.00 0.00 34 996.1
20260503200052 71 296 17.4 28.7 0.00 0.00 0.00 32 996.3
20260503194511 72 292 16.5 26.9 0.00 0.00 0.00 31 996.8
20260503193018 71 270 16.5 26.9 0.00 0.00 0.00 31 997.2
20260503191534 70 305 20.0 27.8 0.00 0.00 0.00 31 997.2
20260503190048 72 267 15.6 24.3 0.00 0.00 0.00 31 997.4
20260503184624 70 292 17.4 23.5 0.00 0.00 0.00 29 998.0
20260503183012 70 286 16.5 22.6 0.00 0.00 0.00 32 998.5
20260503181532 68 292 13.0 22.6 0.00 0.00 0.00 32 998.5
20260503180011 68 281 13.9 23.5 0.00 0.00 0.00 34 999.1
20260503174532 68 278 15.6 20.9 0.00 0.00 0.00 33 999.1
20260503173037 68 297 11.3 18.2 0.00 0.00 0.00 36 999.1
20260503171611 67 298 13.0 18.2 0.00 0.00 0.00 35 999.1
20260503081506 39 124 4.3 6.1 0.00 0.00 0.00 63 1004.8
20260503071611 41 131 5.2 7.0 0.00 0.00 0.00 60 1005.3
20260503060104 43 132 3.5 6.1 0.00 0.00 0.00 55 1005.7
20260503054503 42 105 3.5 6.1 0.00 0.00 0.00 56 1005.7
20260503053028 43 94 3.5 5.2 0.00 0.00 0.00 55 1005.8